User: anonymous   Login
Location: Unspecified
(0.0000°N, 0.0000°E)
Time: 19:50:30
(UTC+00:00)
Language:

FLTSATCOM F8 - Orbit

View from above orbital plane
View from above orbital plane
View from above satellite
View from above satellite

Ground track
Ground track

The orbit data is extracted from the following two-line orbital elements,

1 20253U 89077A   19083.31826024 -.00000161  00000-0  00000+0 0  9998
2 20253  13.0610   9.1853 0006674 332.4114 298.9498  1.00271091234113
Epoch (UTC): 24 March 2019 07:38:17
Eccentricity: 0.0006674
inclination: 13.0610°
perigee height: 35758 km
apogee height: 35814 km
right ascension of ascending node: 9.1853°
argument of perigee: 332.4114°
revolutions per day: 1.00271091
mean anomaly at epoch: 298.9498°
orbit number at epoch: 23411

The dashed part of the orbit path shows where the satellite is in the earth's shadow,  

DLR